Time,TemperatureF,DewpointF,PressureIn,WindDirection,WindDirectionDegrees,WindSpeedMPH,WindSpeedGustMPH,Humidity,HourlyPrecipIn,Conditions,Clouds,dailyrainin,SolarRadiationWatts/m^2,SoftwareType,DateUTC
2013-03-29 00:22:00,23.0,21.0,-100.00,NW,326,1.0,1.0,91,0.00,,,-99.99,0.000000,,2013-03-29 08:22:00,
2013-03-29 00:32:00,23.0,21.0,-100.00,NW,326,1.0,1.0,91,0.00,,,-99.99,0.000000,,2013-03-29 08:32:00,
2013-03-29 00:42:00,23.0,21.0,-100.00,NW,326,1.0,1.0,91,0.00,,,-99.99,0.000000,,2013-03-29 08:42:00,
2013-03-29 00:52:00,23.0,21.0,-100.00,NW,326,1.0,1.0,91,0.00,,,-99.99,0.000000,,2013-03-29 08:52:00,
2013-03-29 01:22:00,23.0,21.0,-100.00,West,278,1.0,4.0,91,0.00,,,-99.99,0.000000,,2013-03-29 09:22:00,
2013-03-29 01:32:00,23.0,21.0,-100.00,West,278,1.0,4.0,91,0.00,,,-99.99,0.000000,,2013-03-29 09:32:00,
2013-03-29 01:42:00,23.0,21.0,-100.00,West,278,1.0,4.0,91,0.00,,,-99.99,0.000000,,2013-03-29 09:42:00,
2013-03-29 01:52:00,23.0,21.0,-100.00,West,278,1.0,4.0,91,0.00,,,-99.99,0.000000,,2013-03-29 09:52:00,
2013-03-29 02:22:00,22.0,20.0,-100.00,NE,37,2.0,3.0,90,0.00,,,-99.99,0.000000,,2013-03-29 10:22:00,
2013-03-29 02:33:00,22.0,20.0,-100.00,NE,37,2.0,3.0,90,0.00,,,-99.99,0.000000,,2013-03-29 10:33:00,
2013-03-29 02:42:00,22.0,20.0,-100.00,NE,37,2.0,3.0,90,0.00,,,-99.99,0.000000,,2013-03-29 10:42:00,
2013-03-29 02:52:00,22.0,20.0,-100.00,NE,37,2.0,3.0,90,0.00,,,-99.99,0.000000,,2013-03-29 10:52:00,
2013-03-29 03:23:00,22.0,20.0,-100.00,West,273,2.0,4.0,91,0.00,,,-99.99,0.000000,,2013-03-29 11:23:00,
2013-03-29 03:32:00,22.0,20.0,-100.00,West,273,2.0,4.0,91,0.00,,,-99.99,0.000000,,2013-03-29 11:32:00,
2013-03-29 03:42:00,22.0,20.0,-100.00,West,273,2.0,4.0,91,0.00,,,-99.99,0.000000,,2013-03-29 11:42:00,
2013-03-29 03:52:00,22.0,20.0,-100.00,West,273,2.0,4.0,91,0.00,,,-99.99,0.000000,,2013-03-29 11:52:00,
2013-03-29 04:22:00,21.0,19.0,-100.00,NW,314,1.0,3.0,91,0.00,,,-99.99,0.000000,,2013-03-29 12:22:00,
2013-03-29 04:32:00,21.0,19.0,-100.00,NW,314,1.0,3.0,91,0.00,,,-99.99,0.000000,,2013-03-29 12:32:00,
2013-03-29 04:42:00,21.0,19.0,-100.00,NW,314,1.0,3.0,91,0.00,,,-99.99,0.000000,,2013-03-29 12:42:00,
2013-03-29 04:52:00,21.0,19.0,-100.00,NW,314,1.0,3.0,91,0.00,,,-99.99,0.000000,,2013-03-29 12:52:00,
2013-03-29 05:22:00,20.0,18.0,-100.00,East,96,1.0,3.0,91,0.00,,,-99.99,0.000000,,2013-03-29 13:22:00,
2013-03-29 05:32:00,20.0,18.0,-100.00,East,96,1.0,3.0,91,0.00,,,-99.99,0.000000,,2013-03-29 13:32:00,
2013-03-29 05:42:00,20.0,18.0,-100.00,East,96,1.0,3.0,91,0.00,,,-99.99,0.000000,,2013-03-29 13:42:00,
2013-03-29 05:52:00,20.0,18.0,-100.00,East,96,1.0,3.0,91,0.00,,,-99.99,0.000000,,2013-03-29 13:52:00,
2013-03-29 06:22:00,20.0,18.0,-100.00,NW,307,1.0,4.0,92,0.00,,,-99.99,0.000000,,2013-03-29 14:22:00,
2013-03-29 06:32:00,20.0,18.0,-100.00,NW,307,1.0,4.0,92,0.00,,,-99.99,0.000000,,2013-03-29 14:32:00,
2013-03-29 06:42:00,20.0,18.0,-100.00,NW,307,1.0,4.0,92,0.00,,,-99.99,0.000000,,2013-03-29 14:42:00,
2013-03-29 06:52:00,20.0,18.0,-100.00,NW,307,1.0,4.0,92,0.00,,,-99.99,0.000000,,2013-03-29 14:52:00,
2013-03-29 07:22:00,21.0,19.0,-100.00,NE,56,2.0,5.0,91,0.00,,,-99.99,0.000000,,2013-03-29 15:22:00,
2013-03-29 07:33:00,21.0,19.0,-100.00,NE,56,2.0,5.0,91,0.00,,,-99.99,0.000000,,2013-03-29 15:33:00,
2013-03-29 07:42:00,21.0,19.0,-100.00,NE,56,2.0,5.0,91,0.00,,,-99.99,0.000000,,2013-03-29 15:42:00,
2013-03-29 07:52:00,21.0,19.0,-100.00,NE,56,2.0,5.0,91,0.00,,,-99.99,0.000000,,2013-03-29 15:52:00,
2013-03-29 08:23:00,22.0,20.0,-100.00,North,3,2.0,5.0,91,0.00,,,-99.99,0.000000,,2013-03-29 16:23:00,
2013-03-29 08:32:00,22.0,20.0,-100.00,North,3,2.0,5.0,91,0.00,,,-99.99,0.000000,,2013-03-29 16:32:00,
2013-03-29 08:42:00,22.0,20.0,-100.00,North,3,2.0,5.0,91,0.00,,,-99.99,0.000000,,2013-03-29 16:42:00,
2013-03-29 08:52:00,22.0,20.0,-100.00,North,3,2.0,5.0,91,0.00,,,-99.99,0.000000,,2013-03-29 16:52:00,
2013-03-29 09:22:00,22.0,20.0,-100.00,NE,41,1.0,4.0,90,0.00,,,-99.99,0.000000,,2013-03-29 17:22:00,
2013-03-29 09:33:00,22.0,20.0,-100.00,NE,41,1.0,4.0,90,0.00,,,-99.99,0.000000,,2013-03-29 17:33:00,
2013-03-29 09:42:00,22.0,20.0,-100.00,NE,41,1.0,4.0,90,0.00,,,-99.99,0.000000,,2013-03-29 17:42:00,
2013-03-29 09:52:00,22.0,20.0,-100.00,NE,41,1.0,4.0,90,0.00,,,-99.99,0.000000,,2013-03-29 17:52:00,
2013-03-29 10:22:00,24.0,22.0,-100.00,NE,36,2.0,4.0,90,0.00,,,0.03,2.000000,,2013-03-29 18:22:00,
2013-03-29 10:32:00,24.0,22.0,-100.00,NE,36,2.0,4.0,90,0.00,,,0.03,2.000000,,2013-03-29 18:32:00,
2013-03-29 10:42:00,24.0,22.0,-100.00,NE,36,2.0,4.0,90,0.00,,,0.03,2.000000,,2013-03-29 18:42:00,
2013-03-29 10:52:00,24.0,22.0,-100.00,NE,36,2.0,4.0,90,0.00,,,0.03,2.000000,,2013-03-29 18:52:00,
2013-03-29 11:12:00,26.0,22.0,-100.00,NNW,334,1.0,5.0,84,-99.99,,,-99.99,,,2013-03-29 19:12:00,
2013-03-29 11:22:00,26.0,22.0,-100.00,NNW,334,1.0,6.0,84,0.00,,,0.03,4.000000,,2013-03-29 19:22:00,
2013-03-29 11:32:00,26.0,22.0,-100.00,NNW,334,1.0,6.0,84,0.00,,,0.03,4.000000,,2013-03-29 19:32:00,
2013-03-29 11:42:00,26.0,22.0,-100.00,NNW,334,1.0,6.0,84,0.00,,,0.03,4.000000,,2013-03-29 19:42:00,
2013-03-29 11:52:00,26.0,22.0,-100.00,NNW,334,1.0,6.0,84,0.00,,,0.03,4.000000,,2013-03-29 19:52:00,
2013-03-29 12:22:00,28.0,23.0,-100.00,NNE,26,2.0,6.0,82,0.00,,,0.03,9.000000,,2013-03-29 20:22:00,
2013-03-29 12:32:00,28.0,23.0,-100.00,NNE,26,2.0,6.0,82,0.00,,,0.03,9.000000,,2013-03-29 20:32:00,
2013-03-29 12:42:00,28.0,23.0,-100.00,NNE,26,2.0,6.0,82,0.00,,,0.03,9.000000,,2013-03-29 20:42:00,
2013-03-29 12:51:00,28.0,23.0,-100.00,NNE,26,2.0,6.0,82,0.00,,,0.03,9.000000,,2013-03-29 20:51:00,
2013-03-29 13:22:00,29.0,23.0,-100.00,NW,309,3.0,5.0,78,0.00,,,0.03,13.000000,,2013-03-29 21:22:00,
2013-03-29 13:32:00,29.0,23.0,-100.00,NW,309,3.0,5.0,78,0.00,,,0.03,13.000000,,2013-03-29 21:32:00,
2013-03-29 13:42:00,29.0,23.0,-100.00,NW,309,3.0,5.0,78,0.00,,,0.03,13.000000,,2013-03-29 21:42:00,
2013-03-29 13:53:00,29.0,23.0,-100.00,NW,309,3.0,5.0,78,0.00,,,0.03,13.000000,,2013-03-29 21:53:00,
2013-03-29 14:22:00,32.0,25.0,-100.00,West,272,2.0,7.0,74,0.01,,,0.02,18.000000,,2013-03-29 22:22:00,
2013-03-29 14:33:00,32.0,25.0,-100.00,West,272,2.0,7.0,74,0.01,,,0.02,18.000000,,2013-03-29 22:33:00,
2013-03-29 14:42:00,32.0,25.0,-100.00,West,272,2.0,7.0,74,0.01,,,0.02,18.000000,,2013-03-29 22:42:00,
2013-03-29 14:52:00,32.0,25.0,-100.00,West,272,2.0,7.0,74,0.01,,,0.02,18.000000,,2013-03-29 22:52:00,
2013-03-29 15:22:00,35.0,27.0,-100.00,NNE,13,3.0,6.0,71,0.00,,,0.01,22.000000,,2013-03-29 23:22:00,
2013-03-29 15:32:00,35.0,27.0,-100.00,NNE,13,3.0,6.0,71,0.00,,,0.01,22.000000,,2013-03-29 23:32:00,
2013-03-29 15:42:00,35.0,27.0,-100.00,NNE,13,3.0,6.0,71,0.00,,,0.01,22.000000,,2013-03-29 23:42:00,
2013-03-29 15:52:00,35.0,27.0,-100.00,NNE,13,3.0,6.0,71,0.00,,,0.01,22.000000,,2013-03-29 23:52:00,
2013-03-29 16:22:00,37.0,29.0,-100.00,NNW,339,4.0,7.0,72,0.02,,,0.03,29.000000,,2013-03-30 00:22:00,
2013-03-29 16:32:00,37.0,29.0,-100.00,NNW,339,4.0,7.0,72,0.02,,,0.03,29.000000,,2013-03-30 00:32:00,
2013-03-29 16:42:00,37.0,29.0,-100.00,NNW,339,4.0,7.0,72,0.02,,,0.03,29.000000,,2013-03-30 00:42:00,
2013-03-29 16:52:00,37.0,29.0,-100.00,NNW,339,4.0,7.0,72,0.02,,,0.03,29.000000,,2013-03-30 00:52:00,
2013-03-29 17:22:00,38.0,29.0,-100.00,NNW,336,3.0,6.0,71,0.01,,,0.04,30.000000,,2013-03-30 01:22:00,
2013-03-29 17:32:00,38.0,29.0,-100.00,NNW,336,3.0,6.0,71,0.01,,,0.04,30.000000,,2013-03-30 01:32:00,
2013-03-29 17:42:00,38.0,29.0,-100.00,NNW,336,3.0,6.0,71,0.01,,,0.04,30.000000,,2013-03-30 01:42:00,
2013-03-29 17:52:00,38.0,29.0,-100.00,NNW,336,3.0,6.0,71,0.01,,,0.04,30.000000,,2013-03-30 01:52:00,
2013-03-29 18:22:00,39.0,31.0,-100.00,NNW,339,3.0,5.0,73,0.02,,,0.06,42.000000,,2013-03-30 02:22:00,
2013-03-29 18:32:00,39.0,31.0,-100.00,NNW,339,3.0,5.0,73,0.02,,,0.06,42.000000,,2013-03-30 02:32:00,
2013-03-29 18:42:00,39.0,31.0,-100.00,NNW,339,3.0,5.0,73,0.02,,,0.06,42.000000,,2013-03-30 02:42:00,
2013-03-29 18:52:00,39.0,31.0,-100.00,NNW,339,3.0,5.0,73,0.02,,,0.06,42.000000,,2013-03-30 02:52:00,
2013-03-29 19:12:00,38.0,30.0,-100.00,NW,326,3.0,6.0,74,-99.99,,,-99.99,,,2013-03-30 03:12:00,
2013-03-29 19:22:00,38.0,30.0,-100.00,NW,326,3.0,7.0,74,0.02,,,0.08,141.000000,,2013-03-30 03:22:00,
2013-03-29 19:33:00,38.0,30.0,-100.00,NW,326,3.0,7.0,74,0.02,,,0.08,141.000000,,2013-03-30 03:33:00,
2013-03-29 19:43:00,38.0,30.0,-100.00,NW,326,3.0,7.0,74,0.02,,,0.08,141.000000,,2013-03-30 03:43:00,
2013-03-29 19:52:00,38.0,30.0,-100.00,NW,326,3.0,7.0,74,0.02,,,0.08,141.000000,,2013-03-30 03:52:00,
2013-03-29 20:23:00,35.0,31.0,-100.00,WSW,258,2.0,5.0,84,0.02,,,0.10,66.000000,,2013-03-30 04:23:00,
2013-03-29 20:32:00,35.0,31.0,-100.00,WSW,258,2.0,5.0,84,0.02,,,0.10,66.000000,,2013-03-30 04:32:00,
2013-03-29 20:42:00,35.0,31.0,-100.00,WSW,258,2.0,5.0,84,0.02,,,0.10,66.000000,,2013-03-30 04:42:00,
2013-03-29 20:52:00,35.0,31.0,-100.00,WSW,258,2.0,5.0,84,0.02,,,0.10,66.000000,,2013-03-30 04:52:00,
2013-03-29 21:22:00,32.0,30.0,-100.00,ENE,61,1.0,2.0,93,0.00,,,0.10,12.000000,,2013-03-30 05:22:00,
2013-03-29 21:32:00,32.0,30.0,-100.00,ENE,61,1.0,2.0,93,0.00,,,0.10,12.000000,,2013-03-30 05:32:00,
2013-03-29 21:42:00,32.0,30.0,-100.00,ENE,61,1.0,2.0,93,0.00,,,0.10,12.000000,,2013-03-30 05:42:00,
2013-03-29 21:51:00,32.0,30.0,-100.00,ENE,61,1.0,2.0,93,0.00,,,0.10,12.000000,,2013-03-30 05:51:00,
2013-03-29 22:22:00,31.0,30.0,-100.00,NE,55,1.0,2.0,96,0.00,,,0.10,0.000000,,2013-03-30 06:22:00,
2013-03-29 22:32:00,31.0,30.0,-100.00,NE,55,1.0,2.0,96,0.00,,,0.10,0.000000,,2013-03-30 06:32:00,
2013-03-29 22:42:00,31.0,30.0,-100.00,NE,55,1.0,2.0,96,0.00,,,0.10,0.000000,,2013-03-30 06:42:00,
2013-03-29 22:52:00,31.0,30.0,-100.00,NE,55,1.0,2.0,96,0.00,,,0.10,0.000000,,2013-03-30 06:52:00,
2013-03-29 23:22:00,31.0,30.0,-100.00,NNE,26,0.0,2.0,97,0.00,,,0.10,0.000000,,2013-03-30 07:22:00,
2013-03-29 23:32:00,31.0,30.0,-100.00,NNE,26,0.0,2.0,97,0.00,,,0.10,0.000000,,2013-03-30 07:32:00,
2013-03-29 23:42:00,31.0,30.0,-100.00,NNE,26,0.0,2.0,97,0.00,,,0.10,0.000000,,2013-03-30 07:42:00,
2013-03-29 23:52:00,31.0,30.0,-100.00,NNE,26,0.0,2.0,97,0.00,,,0.10,0.000000,,2013-03-30 07:52:00,